Location: Burgberg
(50.1428°N, 11.0671°E)
Time: 13:18:18
(UTC+00:00)

Okean O Rocket - Pass Details

Date: 26 January 2020
Orbit: 623 x 645 km, 98.2° (Epoch: 16 February)

Event Time Altitude Azimuth Distance (km) Brightness Sun altitude
Rises 05:03:15 0° 15° (NNE) 2,966 5.1 -18.3°
Reaches altitude 10° 05:05:28 10° 17° (NNE) 2,050 4.3 -17.9°
Maximum altitude 05:09:57 77° 104° (ESE) 663 1.8 -17.2°
Drops below altitude 10° 05:14:21 10° 190° (S) 2,022 4.2 -16.5°
Sets 05:16:33 0° 192° (SSW) 2,922 5.0 -16.2°
